Weather in Yugo-Zapadniy Administrative Okrug

Russia / Moscow Oblast     55°39′45″N   37°34′34″E
В апреле 2022 года жителям России запретили посещать сайт meteo.paraplan.net по решению Генеральной прокуратуры. Аудитория сайта уменьшилась в 10 раз. Владельцы сайта не видят смысла в поддержке погодного сервера в таких условиях. Сайт будет закрыт в октябре.
temp.,
°C
wind,
m/s
gust,
m/s
humid.,
%
clouds,
%
prec.,
mm/h
press.,
hPa
HPBL,
m
3 october, mon
mon300:00+11ene61486100 0.9 999423
03:00+13e71597100 3.4 996745
06:00+14ese81695100 5.8 994991
09:00+15ese91787100 6.7 9931208
12:00+14se91486100 0.8 9931272
15:00+11s71275100 0.9 9961199
18:00+9sse81473100 0.3 9991396
21:00+9sse81678100 0.8 10001555
4 october, tue
tue400:00+9sse61582100 0.4 10021407
03:00+10sse91670100 0.7 10031406
06:00+10sse81473100 0.1 10041420
09:00+10sse81474100 0.1 10061172
12:00+10sse81672100 0.3 10061654
15:00+9s61271100 0.9 10081057
18:00+9sse61176100 0.1 10091156
21:00+9sse51079100 0.3 10091260
5 october, wed
wed500:00+8s61081100 1.1 1009945
03:00+7ssw4787100 2.3 10091165
06:00+7ssw3583100 0.6 1010909
09:00+7ssw3385100 1.0 1011900
12:00+7wsw2380100 0.3 1012561
15:00+7wnw3478100 0.6 1013809
18:00+7w3780100 0.1 1015704
21:00+6w488740 0.1 1015584
6 october, thu
thu600:00+5w389032 0.0 1016404
03:00+6wsw2691100 0.0 1016363
06:00+7sw2592100 0.3 1016244
09:00+7ssw2694100 0.6 1015326
12:00+8sw2695100 0.1 1015304
15:00+9sw3897100 0.4 1014380
18:00+9sw4119582 0.1 1014419
21:00+10wsw4149515 0.1 1013519
7 october, fri
fri700:00+11w5129355 0.0 1014581
03:00+9wnw5139119 0.1 1016647
06:00+9w5129143 0.0 1017614
09:00+10wnw5107890 0.0 1018826
12:00+9w51180100 0.0 10201071
15:00+12w611700 0.0 1019967
18:00+10w511770 0.0 1021831
21:00+9w412840 0.0 1022496